Wind_Speed
18 18 17 15 14 13 14 15 15 12 10 9 10 10 10 11 10 2 4 4 9 15 16 13 7 5 7 3 1 1 4 2 2 6 5 5 5 3 3 6 2 3 5 14 23
20 18 17 15 15 14 15 15 15 11 8 9 9 9 9 10 6 4 6 12 14 16 17 11 3 1 3 2 2 4 3 1 2 3 6 7 7 6 4 3 5 8 15 24 23
22 19 18 17 15 14 16 15 15 10 7 7 8 8 7 8 1 0 13 14 18 17 13 6 8 3 5 3 2 1 1 4 4 5 15 12 5 4 8 1 5 14 15 16 18
22 20 19 18 17 17 16 15 14 8 7 7 7 7 6 1 3 2 13 16 16 14 9 6 4 2 2 1 2 2 2 4 5 5 5 12 6 6 5 4 10 14 17 14 11
22 22 21 20 18 18 16 16 12 7 5 6 6 5 1 1 3 2 15 15 12 10 8 5 4 4 2 1 3 1 3 2 7 5 8 9 6 5 2 10 13 15 14 13 11
22 22 23 22 19 18 18 15 8 4 3 4 5 4 1 3 3 5 11 14 9 10 7 5 5 6 4 4 2 5 2 6 6 9 9 9 4 5 5 12 13 15 12 12 12
22 24 25 25 23 21 18 12 5 2 1 3 3 2 1 3 2 5 7 8 12 11 4 3 2 2 5 4 3 3 4 3 10 7 6 9 5 2 9 12 13 11 10 10 8
22 24 26 26 23 25 16 8 2 1 1 1 3 2 3 2 2 6 6 4 6 11 6 4 2 2 2 5 2 2 4 4 4 2 2 6 2 3 7 10 11 10 10 9 9
23 25 27 29 28 23 12 5 2 3 2 1 2 2 0 3 3 6 7 4 6 6 6 5 1 3 4 5 4 4 3 2 1 5 2 3 5 9 8 8 9 8 8 8 6
26 28 29 30 31 17 8 5 6 4 4 2 1 2 2 1 2 4 8 3 2 2 3 6 5 3 3 4 4 4 4 3 3 3 4 1 1 11 12 10 11 8 7 7 8
26 28 31 30 26 11 4 2 4 3 1 2 2 2 3 4 2 4 5 5 2 7 2 4 5 4 0 2 4 5 4 3 5 5 4 2 4 6 5 4 8 8 8 9 11
28 29 33 27 14 7 7 5 4 2 5 2 4 5 7 3 2 2 8 4 3 3 1 6 2 4 2 2 3 4 3 3 3 5 3 6 11 6 9 10 10 13 11 12 7
28 32 31 25 6 5 4 4 11 6 2 6 4 4 3 7 3 6 5 4 4 3 3 5 4 5 2 1 2 1 3 4 4 3 4 4 7 4 6 7 7 9 8 8 13
31 33 27 22 2 8 0 8 11 10 4 3 3 4 3 3 1 4 7 5 2 8 7 4 4 3 3 3 6 2 7 7 7 7 4 5 4 5 8 14 12 13 11 10 10
35 32 28 17 8 1 3 13 3 2 3 3 2 1 2 6 1 1 3 5 5 5 6 6 2 3 3 6 7 8 5 9 7 5 4 1 2 6 3 10 16 14 14 14 11
37 33 27 5 7 4 8 5 2 5 2 2 4 3 4 2 1 2 3 5 3 5 2 5 2 3 7 4 8 4 5 7 5 3 1 5 6 4 2 5 5 7 12 13 11
38 35 18 5 1 2 8 3 5 3 3 2 3 3 2 4 2 3 5 4 5 3 1 4 4 4 4 2 2 5 6 3 3 2 5 2 3 6 5 10 5 11 13 15 14
37 25 12 6 5 2 1 5 2 3 4 1 2 2 7 6 4 3 5 3 3 4 3 4 5 6 3 7 7 5 8 6 6 4 4 4 6 5 2 6 10 8 14 12 15
38 16 6 4 10 1 5 3 6 5 1 2 2 3 3 3 3 3 7 7 7 8 7 5 5 4 5 2 7 4 3 4 7 3 2 3 5 5 12 14 17 20 9 11 12
27 12 6 4 13 3 4 4 3 3 3 3 4 3 6 4 6 6 6 5 6 11 4 6 1 2 4 3 4 3 5 3 3 5 4 4 3 5 10 12 12 15 14 12 4
9 4 11 7 3 5 3 6 5 6 2 1 3 2 5 5 8 5 6 4 6 3 5 5 4 6 3 1 6 1 1 6 5 4 6 3 6 5 0 4 6 9 9 11 11
5 3 3 2 3 1 3 5 3 3 3 4 3 6 6 5 6 5 9 8 6 10 10 7 5 5 9 2 3 2 5 5 5 5 2 3 6 4 3 5 4 6 8 10 11
2 3 2 1 2 2 4 3 3 2 3 1 3 5 3 5 3 7 6 4 7 8 10 9 2 2 7 6 3 4 1 4 5 4 7 6 5 3 6 6 5 8 7 8 10
2 3 4 4 1 4 1 4 3 3 3 2 4 1 1 4 4 5 5 2 5 5 6 8 4 7 7 7 5 4 3 4 5 4 4 5 7 5 8 6 6 5 6 6 7
0 3 3 2 1 2 0 2 2 3 2 4 2 3 2 2 2 5 4 2 0 7 4 5 7 4 2 5 5 6 4 7 6 4 6 6 10 14 12 9 9 6 5 10 9
1 1 3 2 1 1 3 3 2 2 1 2 2 7 6 4 7 6 7 4 6 3 5 1 4 3 3 4 6 5 5 6 3 4 4 7 2 3 6 4 2 5 5 4 6
3 2 1 3 1 3 5 4 4 1 3 3 4 4 5 7 4 5 7 2 2 8 8 7 7 4 5 4 2 3 7 5 4 3 7 6 6 6 8 6 4 1 3 3 4
Wind_Direction
354 351 350 349 348 350 350 350 349 345 342 341 337 336 330 326 325 294 223 183 164 159 166 145 165 152 152 151 215 211 63 38 317 140 162 166 113 208 71 118 32 41 120 132 144
360 355 351 352 349 350 350 347 344 346 346 344 340 335 329 330 329 247 162 160 157 155 158 158 162 36 74 44 19 61 92 316 272 236 156 145 131 154 107 134 50 75 99 127 140
5 1 359 358 353 352 347 343 342 342 346 348 344 337 339 337 324 261 163 165 169 160 162 159 145 65 54 28 42 64 94 13 291 280 150 145 118 99 122 70 181 152 141 144 144
6 4 360 353 348 344 343 339 339 341 349 353 350 343 335 10 115 75 166 157 162 171 163 154 132 70 83 121 144 55 225 232 279 32 130 141 119 99 152 237 129 148 146 147 158
3 2 359 354 347 345 343 337 336 345 355 358 350 342 2 99 245 146 170 172 171 180 188 165 138 127 201 164 95 63 252 246 279 235 122 116 120 130 106 105 123 137 147 158 169
358 360 358 355 350 346 342 336 330 340 360 6 359 355 10 117 322 180 171 188 180 184 196 178 186 204 138 151 173 200 285 318 344 112 137 114 116 89 116 125 133 147 160 172 175
355 357 356 355 350 346 341 335 323 328 27 15 12 40 49 150 348 165 173 198 193 194 174 208 268 193 144 128 234 190 109 44 27 58 84 98 28 60 142 143 149 163 177 176 197
355 354 354 354 350 343 342 335 309 194 165 12 25 58 213 139 287 179 162 163 183 205 234 247 343 180 197 130 79 94 30 61 340 77 46 92 311 100 146 152 168 180 175 185 189
353 353 352 351 349 341 346 344 138 138 137 60 59 32 158 293 198 213 185 159 170 198 249 298 82 125 44 97 69 13 149 123 327 11 69 99 175 169 167 164 187 197 188 190 180
353 351 351 350 345 343 5 92 114 109 106 85 13 41 334 217 211 171 190 134 111 102 38 43 51 63 47 89 187 176 113 113 186 234 67 331 349 167 169 167 195 200 211 205 204
353 351 348 349 344 357 89 102 18 2 121 199 243 251 280 294 209 164 155 133 72 51 116 8 72 225 29 152 115 116 83 171 205 200 108 235 340 229 173 188 199 205 209 216 212
352 350 347 350 349 32 37 85 109 252 325 239 246 280 262 255 124 110 154 100 88 144 93 28 217 231 81 95 17 83 152 205 8 143 136 175 238 193 182 212 212 211 213 210 207
353 349 347 349 346 23 76 120 345 165 117 301 205 210 206 146 185 199 121 132 123 119 112 141 223 97 135 10 23 6 181 185 165 176 332 79 318 206 234 213 204 232 224 195 200
351 349 349 351 48 346 47 346 336 162 63 277 282 279 129 136 317 187 166 137 104 172 145 216 274 179 166 209 145 256 194 180 150 134 214 142 256 263 215 226 220 226 214 222 199
349 347 342 341 305 242 333 336 121 98 57 166 214 319 29 134 159 184 186 56 164 155 112 242 204 180 176 208 168 225 153 176 165 148 106 195 36 269 162 239 230 221 215 220 208
347 344 332 333 298 243 334 351 83 45 225 162 139 151 107 33 14 85 102 61 124 120 7 237 272 197 209 184 188 141 85 56 56 88 359 213 159 278 236 302 322 239 234 224 208
344 338 317 269 226 172 345 65 46 136 332 198 217 148 139 179 237 159 153 166 161 108 333 322 248 264 176 190 126 86 75 19 11 19 209 312 135 255 316 337 319 289 233 214 214
342 340 320 249 119 256 60 55 187 204 215 335 94 94 171 165 232 145 119 180 207 100 122 157 315 189 182 184 189 185 156 153 188 185 218 76 228 243 22 344 343 294 256 212 200
343 338 338 353 200 150 73 95 211 202 298 8 66 144 230 229 182 139 187 198 206 164 170 149 275 287 223 173 132 186 160 169 104 13 80 227 298 291 10 9 16 356 331 220 210
340 333 353 351 143 103 79 234 235 222 342 46 205 168 189 201 164 159 188 213 210 188 165 198 321 258 302 113 27 152 157 91 7 136 206 276 264 243 355 351 17 10 8 3 64
353 10 356 142 25 52 167 229 255 245 39 199 206 224 201 191 177 189 207 265 201 141 122 135 117 282 351 178 182 98 97 51 112 124 161 210 256 190 67 4 31 22 17 27 19
9 345 58 354 54 31 178 204 246 257 286 257 222 214 202 178 178 206 211 223 170 150 163 197 147 197 221 312 272 168 183 144 133 226 245 173 262 110 88 73 86 58 42 43 38
1 266 4 189 192 259 278 283 263 268 259 230 246 194 162 205 188 194 204 248 180 158 165 179 216 69 346 357 11 101 39 94 104 78 193 160 253 150 124 106 75 102 78 64 63
6 333 318 45 59 149 163 260 256 247 245 295 272 105 193 240 245 222 222 251 181 168 77 104 132 159 188 200 153 165 198 163 128 126 193 219 167 187 160 150 143 123 126 110 77
78 243 190 292 329 14 352 302 238 269 1 346 13 41 297 257 221 217 249 244 174 161 99 132 180 176 209 181 158 179 179 156 189 198 162 223 185 186 170 184 183 178 206 132 103
240 324 341 259 251 214 174 236 245 309 241 285 65 323 286 232 205 237 179 200 203 197 144 98 180 157 172 206 205 201 219 145 109 123 73 122 143 143 144 137 207 237 250 244 144
248 237 194 268 293 142 212 187 138 120 290 51 13 324 281 262 267 244 230 219 230 172 173 140 136 118 222 198 199 302 216 156 130 121 141 171 213 169 160 155 143 85 43 53 36
Height
786 782 779 776 774 771 769 767 765 763 762 761 759 757 756 754 753 753 753 749 750 752 754 756 757 760 763 765 762 762 789 798 784 786 784 775 781 774 772 781 779 781 787 791 798
785 781 778 775 773 771 768 766 763 761 760 759 757 756 754 753 751 751 749 748 750 751 754 755 757 757 764 767 766 772 790 783 768 765 774 774 776 780 783 785 791 792 792 796 800
784 780 778 775 772 769 767 764 761 760 759 758 756 754 753 751 752 747 747 748 750 752 755 756 756 758 768 768 771 775 783 773 763 757 757 771 777 776 789 795 790 794 797 799 801
784 781 777 774 770 768 765 762 760 758 757 756 755 754 752 752 766 746 748 749 750 753 755 757 759 765 775 778 772 778 769 770 766 758 762 773 773 782 784 786 782 789 794 800 803
784 780 776 772 769 766 763 760 757 756 756 755 754 753 753 753 749 746 748 750 752 754 755 756 761 766 776 774 775 780 769 763 760 759 764 766 778 779 786 783 786 791 796 800 803
783 779 776 772 768 765 761 758 756 755 755 755 754 753 753 757 746 746 747 749 753 755 755 756 758 758 767 771 775 768 765 763 760 757 763 775 780 777 787 786 792 793 797 799 801
781 777 773 769 765 762 759 756 755 754 754 754 753 753 753 751 746 746 748 749 752 753 755 757 756 758 760 774 762 764 775 766 767 765 776 773 793 791 784 787 794 795 797 798 802
780 775 771 767 763 759 756 753 753 753 753 753 753 753 754 746 746 746 748 749 751 753 754 756 755 757 760 760 767 774 780 793 777 770 774 778 813 792 786 790 796 796 797 800 800
778 774 769 765 761 756 753 751 752 752 753 753 754 754 752 746 746 745 747 748 750 752 752 754 754 762 764 779 791 789 803 797 791 772 774 780 801 787 786 792 797 796 796 797 801
776 771 767 763 758 754 751 751 752 753 754 755 755 758 746 747 744 744 747 749 749 751 755 757 768 781 785 792 815 801 801 797 801 782 782 789 790 786 782 789 794 795 796 795 797
776 771 766 761 756 753 752 752 756 758 754 752 753 750 747 743 743 744 746 748 749 757 774 772 785 792 782 780 779 784 784 789 784 775 786 796 794 790 789 790 793 794 795 795 793
775 770 765 760 755 754 753 755 759 760 764 748 750 749 745 744 748 745 746 755 759 776 771 787 796 777 772 775 781 785 793 796 787 781 786 793 793 785 785 785 784 785 788 788 790
774 768 763 759 755 755 755 756 756 755 768 754 747 747 742 744 749 750 746 753 765 776 779 795 782 773 774 779 785 790 796 795 796 789 783 795 803 792 783 778 779 778 777 781 782
773 767 761 758 759 757 756 756 753 754 784 761 753 744 742 742 752 742 744 751 763 779 784 784 771 772 781 783 785 797 778 782 788 803 822 792 833 799 784 779 777 774 775 773 775
771 765 761 758 758 757 757 754 753 754 804 756 751 738 741 751 749 749 744 749 769 773 780 785 773 775 782 781 777 785 770 782 786 805 806 805 822 798 785 788 774 771 768 766 767
768 762 757 756 756 755 754 752 754 788 793 760 748 752 754 751 751 749 749 748 755 771 774 775 763 765 770 763 767 764 778 794 806 815 833 809 816 803 796 786 770 766 762 761 762
764 759 753 754 754 753 752 754 792 801 759 762 759 756 760 763 758 755 763 769 783 795 794 782 774 762 757 769 765 777 797 837 835 839 841 811 816 796 785 772 773 765 752 753 755
761 753 750 751 751 753 753 773 793 772 769 752 756 761 769 764 761 763 771 782 771 781 806 804 803 770 755 765 777 783 790 829 838 848 828 814 819 792 777 770 764 757 746 746 748
758 752 750 750 750 752 763 794 784 771 757 760 759 767 768 761 761 764 774 779 771 774 793 804 795 761 756 753 760 781 794 786 826 835 832 821 800 783 773 771 767 757 743 743 744
759 755 752 751 751 753 775 788 774 761 754 756 770 763 775 768 773 773 778 760 763 764 761 779 797 768 759 754 761 766 774 801 818 834 832 823 813 807 786 783 774 770 766 760 751
763 763 755 754 754 764 785 785 768 755 751 758 763 764 767 766 770 777 770 757 753 761 762 777 788 783 767 769 778 780 787 803 807 820 832 831 824 784 785 782 780 777 773 769 768
771 776 758 758 771 787 782 772 758 753 749 753 754 759 762 759 768 771 769 757 743 753 770 770 793 799 784 765 765 764 776 789 810 814 826 819 818 777 780 780 779 781 779 775 773
781 777 759 759 780 781 774 765 757 756 753 753 753 751 750 759 764 764 762 743 744 751 759 767 792 805 793 783 768 774 772 790 802 809 821 818 813 782 779 780 780 781 781 780 776
783 782 767 765 772 770 769 768 764 750 752 751 751 748 752 758 757 757 755 742 743 744 746 752 788 785 802 784 776 778 771 778 789 811 804 806 797 788 784 784 783 782 782 781 779
785 780 778 779 775 772 770 768 765 762 752 751 752 754 756 761 756 760 752 746 742 743 750 757 774 775 770 766 766 766 765 777 782 780 786 784 789 778 778 783 784 784 782 777 778
786 786 781 778 774 772 771 767 763 763 759 758 760 761 757 759 756 754 753 751 748 746 749 761 777 768 772 767 766 766 762 764 770 782 784 785 783 771 776 782 789 788 787 784 777
780 779 781 777 775 772 770 763 764 763 758 756 764 765 758 751 743 742 743 741 740 746 754 762 776 782 787 770 770 780 764 762 770 771 778 788 777 776 778 783 788 790 788 785 781